Lincoln, NE

5:29 PM CDT on March 25, 2017 (GMT -0500)
Lincoln Municipal

Weather History for KLNK - April, 2014

Change the Weather History Date:

Monday, April 28, 2014

  Actual Average Record
Temperature  
Mean Temperature 56 °F 56 °F  
Max Temperature 64 °F 69 °F 97 °F (1910)
Min Temperature 48 °F 44 °F 30 °F (2008)
Degree Days  
Heating Degree Days 9 10  
Month to date heating degree days 340 398  
Since 1 July heating degree days 6314 5874  
Cooling Degree Days 0 1  
Month to date cooling degree days 15 11  
Year to date cooling degree days 15 12  
Growing Degree Days 4 (Base 50)    
Moisture  
Dew Point 45 °F    
Average Humidity 68    
Maximum Humidity 78    
Minimum Humidity 57    
Precipitation  
Precipitation 0.06 in 0.11 in 2.34 in (1974)
Month to date precipitation 3.19 2.48  
Year to date precipitation 4.18 5.82  
Snow  
Snow 0.00 in 0.00 in - ()
Month to date snowfall 0.5 1.4  
Since 1 July snowfall 18.2 25.9  
Snow Depth 0.00 in    
Sea Level Pressure  
Sea Level Pressure 29.27 in    
Wind  
Wind Speed 10 mph (SSW)    
Max Wind Speed 21 mph    
Max Gust Speed 24 mph    
Visibility 10 miles    
Events Rain    
T = Trace of Precipitation, MM = Missing Value Source: NWS Daily Summary

Daily Weather History Graph

Daily Weather History Graph

Search for Another Location

Airport or City:

Trip Planner

Search our weather history database for the weather conditions in past years. The results will help you decide how hot, cold, wet, or windy it might be!

Date:

Astronomy

Apr. 28, 2014 Rise Set
Actual Time 6:29 AM CDT 8:20 PM CDT
Civil Twilight 5:59 AM CDT 8:49 PM CDT
Nautical Twilight 5:23 AM CDT 9:26 PM CDT
Astronomical Twilight 4:45 AM CDT 10:04 PM CDT
Moon 6:08 AM CDT (4/28) 7:59 PM CDT (4/28)
Length of Visible Light 14h 50m
Length of Day
13h 51m
Waning Crescent, 0% of the Moon is Illuminated
Apr 28
Waning Crescent
Apr 29
New
May 6
First Quarter
May 14
Full
May 21
Last Quarter

Hourly Weather History & Observations

Time (CDT) Temp. Dew Point Humidity Pressure Visibility Wind Dir Wind Speed Gust Speed Precip Events Conditions
12:54 AM 64.0 °F 55.9 °F 75% 29.22 in 10.0 mi SSE 18.4 mph - N/A   Overcast
1:54 AM 62.1 °F 55.0 °F 78% 29.21 in 10.0 mi SE 13.8 mph - N/A   Overcast
2:54 AM 60.8 °F 51.8 °F 72% 29.22 in 9.0 mi South 12.7 mph - N/A   Overcast
3:17 AM 57.9 °F 48.0 °F 70% 29.22 in 7.0 mi South 11.5 mph - N/A   Overcast
3:54 AM 54.0 °F 46.0 °F 75% 29.21 in 7.0 mi South 9.2 mph - N/A   Overcast
4:49 AM 51.8 °F 42.8 °F 71% 29.26 in 10.0 mi WSW 10.4 mph - N/A   Scattered Clouds
4:54 AM 52.0 °F 43.0 °F 71% 29.24 in 10.0 mi WSW 9.2 mph - N/A   Partly Cloudy
5:54 AM 50.0 °F 43.0 °F 77% 29.25 in 10.0 mi WSW 9.2 mph - N/A   Clear
6:54 AM 48.0 °F 41.0 °F 77% 29.26 in 10.0 mi SW 6.9 mph - N/A   Clear
7:54 AM 48.0 °F 39.9 °F 74% 29.26 in 10.0 mi WSW 8.1 mph - N/A   Clear
8:54 AM 50.0 °F 39.9 °F 68% 29.26 in 10.0 mi SW 9.2 mph - N/A   Clear
9:54 AM 53.1 °F 42.1 °F 66% 29.25 in 10.0 mi SW 11.5 mph - N/A   Clear
10:29 AM 55.0 °F 41.0 °F 59% 29.26 in 10.0 mi WSW 16.1 mph - N/A   Mostly Cloudy
10:32 AM 54.0 °F 41.0 °F 62% 29.26 in 10.0 mi WSW 11.5 mph - N/A   Scattered Clouds
10:54 AM 55.9 °F 41.0 °F 57% 29.25 in 10.0 mi SW 16.1 mph - N/A   Scattered Clouds
11:15 AM 55.0 °F 41.0 °F 59% 29.28 in 10.0 mi SSW 11.5 mph - N/A   Mostly Cloudy
11:54 AM 55.0 °F 41.0 °F 59% 29.27 in 10.0 mi WSW 6.9 mph - N/A   Mostly Cloudy
12:17 PM 57.0 °F 43.0 °F 59% 29.28 in 10.0 mi SSW 6.9 mph - N/A   Partly Cloudy
12:54 PM 59.0 °F 44.1 °F 58% 29.26 in 10.0 mi SSW 10.4 mph - N/A   Partly Cloudy
1:54 PM 57.9 °F 43.0 °F 58% 29.26 in 10.0 mi SSW 11.5 mph 21.9 mph N/A   Overcast
2:54 PM 55.9 °F 42.1 °F 60% 29.28 in 10.0 mi SSW 12.7 mph - N/A   Overcast
3:54 PM 57.2 °F 42.8 °F 59% 29.29 in 10.0 mi South 12.7 mph - N/A   Overcast
4:54 PM 57.0 °F 43.0 °F 59% 29.30 in 10.0 mi South 15.0 mph - N/A   Overcast
5:54 PM 57.0 °F 44.1 °F 62% 29.31 in 10.0 mi South 10.4 mph - N/A   Overcast
6:54 PM 57.0 °F 44.1 °F 62% 29.31 in 10.0 mi SSW 10.4 mph - N/A   Clear
7:54 PM 55.0 °F 44.1 °F 67% 29.32 in 10.0 mi South 5.8 mph - N/A   Partly Cloudy
8:54 PM 55.0 °F 45.0 °F 69% 29.34 in 10.0 mi SSE 5.8 mph - N/A   Overcast
9:54 PM 54.0 °F 46.9 °F 77% 29.36 in 8.0 mi SE 3.5 mph - 0.01 in Rain Light Rain
10:54 PM 54.0 °F 46.0 °F 75% 29.37 in 10.0 mi Calm Calm - 0.00 in   Overcast
11:54 PM 52.0 °F 48.0 °F 86% 29.38 in 5.0 mi NNE 9.2 mph - 0.03 in Rain Light Rain